STARLINK-32778, 62603

Orbit data source: Space-Track

STARLINK-32778, 62603 is a payload satellite owned by SpaceX/Seattle (US) in LEO that was launched on Mon, 13 Jan 2025 UTC via an FALCON 9 launch vehicle from the Air Force Eastern Test Range (AFETR). Payloads include a variety of satellites, spacecraft, and rockets equipped with specific instruments for various scientific and technological missions. These include communications satellites like Starlink; space stations such as the ISS; scientific satellites like the Hubble; Earth observation satellites from companies like Planet Labs, Umbra, and HawkEye 360; GPS; miniature CubeSats for education and research; and military/defense satellites.

Loading next visibility...
STARLINK-32778 details
Identifier
62603, 2025-008S
Orbit
LEO
Last TLE update8 hours ago
Origin
Flag of USSpaceX/Seattle (US)
ManufacturerSpaceX/Seattle
MissionOperational spacecraft
Bus & MotorSTARLINK V2M, Unknown motor
Mass730 kg wet, ~700 kg dry
Launch date (UTC)
2025-01-13 (3 weeks ago)
Launch vehicle
FALCON 9
Launch site
Air Force Eastern Test Range (AFETR)
Object type
Payload
Rocket body
Debris
Shape & HBRUnknown
Radar Cross SectionLarge (>1 m²)

Expand to show TLE details & history

TLE from 8 hours ago
0 STARLINK-32778
1 62603U 25008S   25035.83335648  .00025671  00000-0  44225-3 0  9998
2 62603  43.0003   7.9934 0001225 245.8849   7.8524 15.50560720  4675
Epoch: 2025-02-04T20:00Z
Definitive object data (Epoch: 2025-02-04T20:00:01.999Z)
Latitude-41.06449°
Longitude-178.95157°
Altitude426.732 km
Speed7.656 km/s
True Right ascension17h 05m 09s
True Declination-40° 53' 09"
Sunlit
Object was in daylight at TLE epoch
Visualization TLE readout
Latitude-42.39118°
Longitude-145.92669°
Altitude427.347 km
Speed7.656 km/s
Apparent Right ascension18h 35m 21s
Apparent Declination-41° 30' 01"
Sunlit
Object is in daylight
Visualization observer readout
Local Sidereal Time05:52:16
Azimuth255.531° W
Elevation-81.691°
Doppler factor1
Orbital elements
Apogee altitude417.885 km
Perigee altitude416.22 km
Semi-major axis6,795.189 km
Eccentricity0.0001225
Inclination43.0003°
RAAN7.9934°
Arg. of periapsis245.8849°
True anomaly7.85432°
Mean anomaly7.8524°
Eccentric anomaly7.85336°
Mean motion3.87472 °/min
BSTAR0.00044225
Orbital period92.91 mins
Loading maneuver chart data...
Loading historical data...
Loading historical data...
Loading historical data...
Loading historical data...
Loading historical data...
Loading historical data...
Loading historical data...

STARLINK-32778 Visibility forecast

Observer location: undefined°, undefined

Span
Click to sort rows by Start time (UTC) header in descending order
Start Az.
Max El. time (UTC)
Max El. Az.
Max El.
End time (UTC)
End Az.
5 mins2025-02-05 04:32:31.837Z290.216° WNW2025-02-05 04:35:31.837Z32.043° NE34.551°2025-02-05 04:37:31.837Z74.233° E
5 mins2025-02-05 06:10:31.837Z286.429° WNW2025-02-05 06:12:31.837Z239.727° WSW44.674°2025-02-05 06:15:31.837Z112.357° ESE
5 mins2025-02-06 02:05:31.837Z248.911° W2025-02-06 02:07:31.837Z225.971° WSW44.707°2025-02-06 02:10:31.837Z72.377° E
4 mins2025-02-06 03:43:31.837Z294.271° NW2025-02-06 03:45:31.837Z17.83° NNE35.6°2025-02-06 03:47:31.837Z68.536° E
|